Location: Curupao
(10.4996°N, 66.6442°W)
Time: 21:06:31
(UTC+00:00)

Meteor 1-11 - Pass Details

Date: 23 May 2024
Orbit: 842 x 883 km, 81.2° (Epoch: 22 June)

Event Time Altitude Azimuth Distance (km) Brightness Sun altitude
Exits shadow 08:24:20 29° 183° (S) 1,511 5.2 -23.1°
Maximum altitude 08:27:20 87° 96° (E) 860 4.2 -22.4°
Drops below altitude 10° 08:33:01 10° 6° (N) 2,496 7.1 -21.2°
Sets 08:35:27 0° 6° (N) 3,439 7.8 -20.7°
